Time,TemperatureF,DewpointF,PressureIn,WindDirection,WindDirectionDegrees,WindSpeedMPH,WindSpeedGustMPH,Humidity,HourlyPrecipIn,Conditions,Clouds,dailyrainin,SolarRadiationWatts/m^2,SoftwareType,DateUTC
2013-06-22 00:02:00,80.7,49.0,29.95,NNW,345,0.0,-999.0,33,-99.99,,,0.00,0,weatherlink.com 1.10,2013-06-22 07:02:00,
2013-06-22 00:17:00,80.4,49.0,29.95,NNW,331,2.0,-999.0,33,-99.99,,,0.00,0,weatherlink.com 1.10,2013-06-22 07:17:00,
2013-06-22 00:32:00,80.2,49.0,29.94,North,349,4.0,-999.0,33,-99.99,,,0.00,0,weatherlink.com 1.10,2013-06-22 07:32:00,
2013-06-22 00:47:00,79.9,49.0,29.94,NNW,332,6.0,-999.0,34,-99.99,,,0.00,0,weatherlink.com 1.10,2013-06-22 07:47:00,
2013-06-22 01:02:00,79.8,48.0,29.95,North,5,0.0,-999.0,33,-99.99,,,0.00,0,weatherlink.com 1.10,2013-06-22 08:02:00,
2013-06-22 01:17:00,80.3,48.0,29.94,NNW,348,8.0,-999.0,32,-99.99,,,0.00,0,weatherlink.com 1.10,2013-06-22 08:17:00,
2013-06-22 01:32:00,80.2,49.0,29.95,NNW,336,9.0,-999.0,33,-99.99,,,0.00,0,weatherlink.com 1.10,2013-06-22 08:32:00,
2013-06-22 01:47:00,80.1,48.0,29.94,NNW,327,5.0,-999.0,33,-99.99,,,0.00,0,weatherlink.com 1.10,2013-06-22 08:47:00,
2013-06-22 02:02:00,79.8,49.0,29.94,NW,307,6.0,-999.0,34,-99.99,,,0.00,0,weatherlink.com 1.10,2013-06-22 09:02:00,
2013-06-22 02:17:00,79.5,49.0,29.94,NW,322,6.0,-999.0,34,-99.99,,,0.00,0,weatherlink.com 1.10,2013-06-22 09:17:00,
2013-06-22 02:32:00,80.0,48.0,29.94,NW,326,4.0,-999.0,33,-99.99,,,0.00,0,weatherlink.com 1.10,2013-06-22 09:32:00,
2013-06-22 02:47:00,79.3,49.0,29.94,NNW,344,1.0,-999.0,34,-99.99,,,0.00,0,weatherlink.com 1.10,2013-06-22 09:47:00,
2013-06-22 03:02:00,78.6,49.0,29.94,NNW,330,0.0,-999.0,35,-99.99,,,0.00,0,weatherlink.com 1.10,2013-06-22 10:02:00,
2013-06-22 03:17:00,78.0,49.0,29.94,NNW,330,2.0,-999.0,36,-99.99,,,0.00,0,weatherlink.com 1.10,2013-06-22 10:17:00,
2013-06-22 03:32:00,77.7,49.0,29.95,NNW,331,0.0,-999.0,36,-99.99,,,0.00,0,weatherlink.com 1.10,2013-06-22 10:32:00,
2013-06-22 03:47:00,77.6,49.0,29.95,NNW,333,0.0,-999.0,36,-99.99,,,0.00,0,weatherlink.com 1.10,2013-06-22 10:47:00,
2013-06-22 04:02:00,77.6,49.0,29.95,North,349,2.0,-999.0,36,-99.99,,,0.00,0,weatherlink.com 1.10,2013-06-22 11:02:00,
2013-06-22 04:18:00,77.5,48.0,29.95,NNW,346,4.0,-999.0,36,-99.99,,,0.00,0,weatherlink.com 1.10,2013-06-22 11:18:00,
2013-06-22 04:33:00,77.3,48.0,29.95,NNW,334,2.0,-999.0,36,-99.99,,,0.00,0,weatherlink.com 1.10,2013-06-22 11:33:00,
2013-06-22 04:48:00,77.4,48.0,29.95,NNW,333,2.0,-999.0,35,-99.99,,,0.00,0,weatherlink.com 1.10,2013-06-22 11:48:00,
2013-06-22 05:03:00,77.4,48.0,29.96,NNW,333,0.0,-999.0,35,-99.99,,,0.00,0,weatherlink.com 1.10,2013-06-22 12:03:00,
2013-06-22 05:18:00,77.5,48.0,29.96,North,355,0.0,-999.0,35,-99.99,,,0.00,0,weatherlink.com 1.10,2013-06-22 12:18:00,
2013-06-22 05:33:00,77.0,48.0,29.97,WNW,302,0.0,-999.0,36,-99.99,,,0.00,0,weatherlink.com 1.10,2013-06-22 12:33:00,
2013-06-22 05:48:00,76.3,47.0,29.97,NNW,333,0.0,-999.0,36,-99.99,,,0.00,7,weatherlink.com 1.10,2013-06-22 12:48:00,
2013-06-22 06:03:00,76.0,48.0,29.98,NNW,334,0.0,-999.0,37,-99.99,,,0.00,12,weatherlink.com 1.10,2013-06-22 13:03:00,
2013-06-22 06:18:00,76.0,49.0,29.98,NW,314,0.0,-999.0,38,-99.99,,,0.00,60,weatherlink.com 1.10,2013-06-22 13:18:00,
2013-06-22 06:33:00,76.4,48.0,29.99,NNW,327,6.0,-999.0,37,-99.99,,,0.00,104,weatherlink.com 1.10,2013-06-22 13:33:00,
2013-06-22 06:48:00,77.2,49.0,30.00,NNW,329,0.0,-999.0,37,-99.99,,,0.00,151,weatherlink.com 1.10,2013-06-22 13:48:00,
2013-06-22 07:03:00,78.0,49.0,30.00,NNW,341,7.0,-999.0,36,-99.99,,,0.00,192,weatherlink.com 1.10,2013-06-22 14:03:00,
2013-06-22 07:18:00,79.0,49.0,30.00,NW,319,0.0,-999.0,35,-99.99,,,0.00,237,weatherlink.com 1.10,2013-06-22 14:18:00,
2013-06-22 07:33:00,80.3,49.0,30.00,NW,315,0.0,-999.0,34,-99.99,,,0.00,279,weatherlink.com 1.10,2013-06-22 14:33:00,
2013-06-22 07:48:00,80.6,53.0,30.02,NW,313,0.0,-999.0,39,-99.99,,,0.00,320,weatherlink.com 1.10,2013-06-22 14:48:00,
2013-06-22 08:03:00,81.6,51.0,30.01,NW,314,0.0,-999.0,35,-99.99,,,0.00,369,weatherlink.com 1.10,2013-06-22 15:03:00,
2013-06-22 08:18:00,82.7,52.0,30.01,NW,317,0.0,-999.0,34,-99.99,,,0.00,413,weatherlink.com 1.10,2013-06-22 15:18:00,
2013-06-22 08:33:00,83.6,53.0,30.01,NW,317,0.0,-999.0,35,-99.99,,,0.00,462,weatherlink.com 1.10,2013-06-22 15:33:00,
2013-06-22 08:49:00,85.0,51.0,30.02,NW,317,0.0,-999.0,31,-99.99,,,0.00,501,weatherlink.com 1.10,2013-06-22 15:49:00,
2013-06-22 09:04:00,86.6,51.0,30.02,NW,317,0.0,-999.0,29,-99.99,,,0.00,543,weatherlink.com 1.10,2013-06-22 16:04:00,
2013-06-22 09:19:00,87.7,50.0,30.02,NW,317,0.0,-999.0,27,-99.99,,,0.00,587,weatherlink.com 1.10,2013-06-22 16:19:00,
2013-06-22 09:34:00,89.9,51.0,30.02,NW,317,0.0,-999.0,26,-99.99,,,0.00,629,weatherlink.com 1.10,2013-06-22 16:34:00,
2013-06-22 09:49:00,91.2,50.0,30.02,SSE,164,0.0,-999.0,24,-99.99,,,0.00,663,weatherlink.com 1.10,2013-06-22 16:49:00,
2013-06-22 10:04:00,90.4,49.0,30.02,SSE,150,2.0,-999.0,24,-99.99,,,0.00,694,weatherlink.com 1.10,2013-06-22 17:04:00,
2013-06-22 10:19:00,90.6,50.0,30.02,SSE,161,0.0,-999.0,25,-99.99,,,0.00,728,weatherlink.com 1.10,2013-06-22 17:19:00,
2013-06-22 10:34:00,91.8,49.0,30.02,SSE,157,0.0,-999.0,23,-99.99,,,0.00,758,weatherlink.com 1.10,2013-06-22 17:34:00,
2013-06-22 10:49:00,93.1,50.0,30.02,SSE,150,0.0,-999.0,23,-99.99,,,0.00,782,weatherlink.com 1.10,2013-06-22 17:49:00,
2013-06-22 11:04:00,93.2,51.0,30.02,SSE,155,0.0,-999.0,24,-99.99,,,0.00,809,weatherlink.com 1.10,2013-06-22 18:04:00,
2013-06-22 11:19:00,94.1,52.0,30.02,SSE,157,0.0,-999.0,24,-99.99,,,0.00,830,weatherlink.com 1.10,2013-06-22 18:19:00,
2013-06-22 11:34:00,94.9,53.0,30.02,SSE,167,1.0,-999.0,24,-99.99,,,0.00,842,weatherlink.com 1.10,2013-06-22 18:34:00,
2013-06-22 11:49:00,95.6,52.0,30.01,SSE,167,0.0,-999.0,23,-99.99,,,0.00,858,weatherlink.com 1.10,2013-06-22 18:49:00,
2013-06-22 12:04:00,96.5,53.0,30.00,South,179,0.0,-999.0,23,-99.99,,,0.00,874,weatherlink.com 1.10,2013-06-22 19:04:00,
2013-06-22 12:19:00,97.2,52.0,30.00,South,186,0.0,-999.0,22,-99.99,,,0.00,879,weatherlink.com 1.10,2013-06-22 19:19:00,
2013-06-22 12:34:00,97.6,52.0,30.00,WSW,252,0.0,-999.0,21,-99.99,,,0.00,881,weatherlink.com 1.10,2013-06-22 19:34:00,
2013-06-22 12:50:00,98.5,52.0,29.99,West,268,0.0,-999.0,21,-99.99,,,0.00,881,weatherlink.com 1.10,2013-06-22 19:50:00,
2013-06-22 13:05:00,98.5,50.0,29.98,SSE,165,0.0,-999.0,19,-99.99,,,0.00,875,weatherlink.com 1.10,2013-06-22 20:05:00,
2013-06-22 13:20:00,99.7,48.0,29.98,SSE,152,0.0,-999.0,17,-99.99,,,0.00,874,weatherlink.com 1.10,2013-06-22 20:20:00,
2013-06-22 13:35:00,100.0,46.0,29.97,SE,146,0.0,-999.0,16,-99.99,,,0.00,860,weatherlink.com 1.10,2013-06-22 20:35:00,
2013-06-22 13:50:00,100.4,48.0,29.97,SSE,157,0.0,-999.0,17,-99.99,,,0.00,847,weatherlink.com 1.10,2013-06-22 20:50:00,
2013-06-22 14:05:00,100.9,49.0,29.96,SSE,157,0.0,-999.0,17,-99.99,,,0.00,830,weatherlink.com 1.10,2013-06-22 21:05:00,
2013-06-22 14:20:00,101.5,46.0,29.96,SSE,157,0.0,-999.0,15,-99.99,,,0.00,805,weatherlink.com 1.10,2013-06-22 21:20:00,
2013-06-22 14:35:00,102.4,47.0,29.95,WNW,289,0.0,-999.0,15,-99.99,,,0.00,786,weatherlink.com 1.10,2013-06-22 21:35:00,
2013-06-22 14:50:00,103.4,49.0,29.95,WNW,288,0.0,-999.0,16,-99.99,,,0.00,761,weatherlink.com 1.10,2013-06-22 21:50:00,
2013-06-22 15:05:00,104.0,46.0,29.94,WNW,286,0.0,-999.0,14,-99.99,,,0.00,729,weatherlink.com 1.10,2013-06-22 22:05:00,
2013-06-22 15:20:00,103.9,46.0,29.93,WNW,300,0.0,-999.0,14,-99.99,,,0.00,696,weatherlink.com 1.10,2013-06-22 22:20:00,
2013-06-22 15:35:00,104.5,48.0,29.93,WNW,300,0.0,-999.0,15,-99.99,,,0.00,663,weatherlink.com 1.10,2013-06-22 22:35:00,
2013-06-22 15:50:00,104.9,49.0,29.92,WNW,300,0.0,-999.0,15,-99.99,,,0.00,626,weatherlink.com 1.10,2013-06-22 22:50:00,
2013-06-22 16:05:00,105.0,47.0,29.91,WNW,300,0.0,-999.0,14,-99.99,,,0.00,585,weatherlink.com 1.10,2013-06-22 23:05:00,
2013-06-22 16:20:00,104.3,46.0,29.90,West,275,0.0,-999.0,14,-99.99,,,0.00,541,weatherlink.com 1.10,2013-06-22 23:20:00,
2013-06-22 16:35:00,104.7,48.0,29.91,West,277,0.0,-999.0,15,-99.99,,,0.00,503,weatherlink.com 1.10,2013-06-22 23:35:00,
2013-06-22 16:50:00,105.1,50.0,29.90,WNW,290,0.0,-999.0,16,-99.99,,,0.00,459,weatherlink.com 1.10,2013-06-22 23:50:00,
2013-06-22 17:05:00,104.7,50.0,29.89,NW,323,0.0,-999.0,16,-99.99,,,0.00,415,weatherlink.com 1.10,2013-06-23 00:05:00,
2013-06-22 17:20:00,104.6,50.0,29.88,NW,325,0.0,-999.0,16,-99.99,,,0.00,369,weatherlink.com 1.10,2013-06-23 00:20:00,
2013-06-22 17:35:00,103.8,51.0,29.88,NNW,327,0.0,-999.0,17,-99.99,,,0.00,325,weatherlink.com 1.10,2013-06-23 00:35:00,
2013-06-22 17:50:00,103.3,51.0,29.88,NW,324,0.0,-999.0,17,-99.99,,,0.00,278,weatherlink.com 1.10,2013-06-23 00:50:00,
2013-06-22 18:05:00,102.2,51.0,29.88,NNW,338,5.0,-999.0,18,-99.99,,,0.00,234,weatherlink.com 1.10,2013-06-23 01:05:00,
2013-06-22 18:20:00,101.0,53.0,29.88,NNW,338,0.0,-999.0,20,-99.99,,,0.00,192,weatherlink.com 1.10,2013-06-23 01:20:00,
2013-06-22 18:35:00,100.6,54.0,29.89,North,355,6.0,-999.0,21,-99.99,,,0.00,148,weatherlink.com 1.10,2013-06-23 01:35:00,
2013-06-22 18:50:00,99.0,54.0,29.89,North,355,4.0,-999.0,22,-99.99,,,0.00,81,weatherlink.com 1.10,2013-06-23 01:50:00,
2013-06-22 19:05:00,97.8,54.0,29.88,NNW,344,7.0,-999.0,23,-99.99,,,0.00,33,weatherlink.com 1.10,2013-06-23 02:05:00,
2013-06-22 19:20:00,96.4,54.0,29.89,NNW,340,2.0,-999.0,24,-99.99,,,0.00,21,weatherlink.com 1.10,2013-06-23 02:20:00,
2013-06-22 19:35:00,95.2,54.0,29.89,NNW,336,6.0,-999.0,25,-99.99,,,0.00,16,weatherlink.com 1.10,2013-06-23 02:35:00,
2013-06-22 19:50:00,94.1,54.0,29.89,NNW,338,0.0,-999.0,26,-99.99,,,0.00,7,weatherlink.com 1.10,2013-06-23 02:50:00,
2013-06-22 20:05:00,92.9,54.0,29.90,NNW,344,0.0,-999.0,27,-99.99,,,0.00,0,weatherlink.com 1.10,2013-06-23 03:05:00,
2013-06-22 20:20:00,91.7,54.0,29.91,NNW,344,0.0,-999.0,28,-99.99,,,0.00,0,weatherlink.com 1.10,2013-06-23 03:20:00,
2013-06-22 20:35:00,90.5,54.0,29.91,NNW,342,5.0,-999.0,29,-99.99,,,0.00,0,weatherlink.com 1.10,2013-06-23 03:35:00,
2013-06-22 20:50:00,89.5,54.0,29.92,NNW,338,0.0,-999.0,30,-99.99,,,0.00,0,weatherlink.com 1.10,2013-06-23 03:50:00,
2013-06-22 21:05:00,88.4,55.0,29.92,NNW,336,0.0,-999.0,32,-99.99,,,0.00,0,weatherlink.com 1.10,2013-06-23 04:05:00,
2013-06-22 21:20:00,87.5,54.0,29.93,NNW,337,0.0,-999.0,32,-99.99,,,0.00,0,weatherlink.com 1.10,2013-06-23 04:20:00,
2013-06-22 21:35:00,86.6,54.0,29.93,NNW,337,6.0,-999.0,33,-99.99,,,0.00,0,weatherlink.com 1.10,2013-06-23 04:35:00,
2013-06-22 21:50:00,85.7,54.0,29.93,NNW,342,0.0,-999.0,34,-99.99,,,0.00,0,weatherlink.com 1.10,2013-06-23 04:50:00,
2013-06-22 22:05:00,85.2,54.0,29.94,NNW,336,0.0,-999.0,34,-99.99,,,0.00,0,weatherlink.com 1.10,2013-06-23 05:05:00,
2013-06-22 22:20:00,84.5,54.0,29.94,NNW,337,0.0,-999.0,35,-99.99,,,0.00,0,weatherlink.com 1.10,2013-06-23 05:20:00,
2013-06-22 22:35:00,83.9,53.0,29.94,NNW,338,0.0,-999.0,35,-99.99,,,0.00,0,weatherlink.com 1.10,2013-06-23 05:35:00,
2013-06-22 22:50:00,83.6,53.0,29.94,NNW,338,0.0,-999.0,35,-99.99,,,0.00,0,weatherlink.com 1.10,2013-06-23 05:50:00,
2013-06-22 23:05:00,83.2,54.0,29.94,NNW,340,0.0,-999.0,36,-99.99,,,0.00,0,weatherlink.com 1.10,2013-06-23 06:05:00,
2013-06-22 23:20:00,82.3,53.0,29.93,NNW,344,4.0,-999.0,37,-99.99,,,0.00,0,weatherlink.com 1.10,2013-06-23 06:20:00,
2013-06-22 23:35:00,81.9,53.0,29.94,NNW,348,11.0,-999.0,37,-99.99,,,0.00,0,weatherlink.com 1.10,2013-06-23 06:35:00,
2013-06-22 23:50:00,81.6,54.0,29.94,NNW,329,7.0,-999.0,38,-99.99,,,0.00,0,weatherlink.com 1.10,2013-06-23 06:50:00,